| time (UTC) | temp F | wind direction | speed MPH | gust MPH | rain 1hr in | rain 24hr in | rain mn in | humidity % | barometer mb |
| 20260508005326 | 86 | 208 | 6.0 | 12.0 | 0.00 | 0.00 | 0.00 | 11 | 1019.6 |
| 20260508004330 | 86 | 225 | 7.0 | 11.0 | 0.00 | 0.00 | 0.00 | 12 | 1019.1 |
| 20260508003322 | 87 | 294 | 7.0 | 12.0 | 0.00 | 0.00 | 0.00 | 11 | 1019.2 |
| 20260508002326 | 87 | 331 | 2.0 | 8.0 | 0.00 | 0.00 | 0.00 | 11 | 1019.1 |
| 20260508001330 | 87 | 23 | 4.0 | 9.0 | 0.00 | 0.00 | 0.00 | 11 | 1019.1 |
| 20260508000337 | 86 | 281 | 5.0 | 9.0 | 0.00 | 0.00 | 0.00 | 11 | 1019.2 |
| 20260507235324 | 86 | 323 | 5.0 | 9.0 | 0.00 | 0.00 | 0.00 | 11 | 1019.2 |
| 20260507234334 | 85 | 340 | 6.0 | 10.0 | 0.00 | 0.00 | 0.00 | 11 | 1019.1 |
| 20260507233352 | 86 | 333 | 7.0 | 11.0 | 0.00 | 0.00 | 0.00 | 11 | 1019.2 |
| 20260507232339 | 85 | 355 | 3.0 | 5.0 | 0.00 | 0.00 | 0.00 | 12 | 1019.3 |
| 20260507231322 | 83 | 122 | 10.0 | 14.0 | 0.00 | 0.00 | 0.00 | 12 | 1019.3 |
| 20260507230328 | 85 | 86 | 15.0 | 21.0 | 0.00 | 0.00 | 0.00 | 11 | 1019.4 |
| 20260507225332 | 87 | 65 | 7.0 | 13.0 | 0.00 | 0.00 | 0.00 | 11 | 1019.3 |
| 20260507224357 | 87 | 342 | 10.0 | 14.0 | 0.00 | 0.00 | 0.00 | 11 | 1019.3 |
| 20260507223329 | 85 | 316 | 6.0 | 18.0 | 0.00 | 0.00 | 0.00 | 12 | 1019.2 |
| 20260507222338 | 84 | 309 | 7.0 | 14.0 | 0.00 | 0.00 | 0.00 | 12 | 1019.3 |
| 20260507221325 | 85 | 113 | 7.0 | 13.0 | 0.00 | 0.00 | 0.00 | 12 | 1019.4 |
| 20260507220400 | 85 | 15 | 5.0 | 11.0 | 0.00 | 0.00 | 0.00 | 12 | 1019.5 |
| 20260507215324 | 85 | 281 | 4.0 | 10.0 | 0.00 | 0.00 | 0.00 | 12 | 1019.7 |
| 20260507214329 | 85 | 325 | 11.0 | 17.0 | 0.00 | 0.00 | 0.00 | 12 | 1019.8 |
| 20260507213345 | 87 | 22 | 6.0 | 13.0 | 0.00 | 0.00 | 0.00 | 12 | 1020.2 |
| 20260507212327 | 86 | 17 | 7.0 | 11.0 | 0.00 | 0.00 | 0.00 | 12 | 1020.2 |
| 20260507211331 | 84 | 60 | 6.0 | 14.0 | 0.00 | 0.00 | 0.00 | 12 | 1020.4 |
| 20260507210337 | 84 | 299 | 2.0 | 8.0 | 0.00 | 0.00 | 0.00 | 12 | 1020.5 |
| 20260507205322 | 83 | 62 | 2.0 | 13.0 | 0.00 | 0.00 | 0.00 | 12 | 1020.6 |
| 20260507204330 | 84 | 73 | 4.0 | 10.0 | 0.00 | 0.00 | 0.00 | 12 | 1020.6 |
| 20260507203406 | 84 | 192 | 3.0 | 12.0 | 0.00 | 0.00 | 0.00 | 12 | 1020.7 |
| 20260507202354 | 85 | 231 | 7.0 | 11.0 | 0.00 | 0.00 | 0.00 | 12 | 1020.8 |
| 20260507201322 | 86 | 236 | 3.0 | 8.0 | 0.00 | 0.00 | 0.00 | 12 | 1020.9 |
| 20260507200330 | 85 | 13 | 2.0 | 4.0 | 0.00 | 0.00 | 0.00 | 13 | 1021.1 |
| 20260507195336 | 83 | 240 | 3.0 | 9.0 | 0.00 | 0.00 | 0.00 | 13 | 1021.2 |
| 20260507194342 | 84 | 194 | 2.0 | 10.0 | 0.00 | 0.00 | 0.00 | 13 | 1021.3 |
| 20260507193331 | 82 | 42 | 2.0 | 14.0 | 0.00 | 0.00 | 0.00 | 14 | 1021.5 |
| 20260507192335 | 83 | 100 | 5.0 | 11.0 | 0.00 | 0.00 | 0.00 | 14 | 1021.5 |
| 20260507191359 | 84 | 54 | 4.0 | 10.0 | 0.00 | 0.00 | 0.00 | 14 | 1021.7 |
| 20260507190323 | 82 | 355 | 6.0 | 13.0 | 0.00 | 0.00 | 0.00 | 15 | 1021.8 |
| 20260507185354 | 81 | 269 | 4.0 | 12.0 | 0.00 | 0.00 | 0.00 | 15 | 1021.9 |
| 20260507184338 | 82 | 291 | 4.0 | 11.0 | 0.00 | 0.00 | 0.00 | 16 | 1021.9 |
| 20260507183355 | 82 | 327 | 4.0 | 11.0 | 0.00 | 0.00 | 0.00 | 16 | 1022.0 |
| 20260507182321 | 81 | 301 | 9.0 | 12.0 | 0.00 | 0.00 | 0.00 | 16 | 1022.0 |
| 20260507181350 | 81 | 65 | 6.0 | 11.0 | 0.00 | 0.00 | 0.00 | 16 | 1022.4 |
| 20260507180344 | 81 | 329 | 2.0 | 10.0 | 0.00 | 0.00 | 0.00 | 17 | 1022.5 |
| 20260507175325 | 81 | 324 | 6.0 | 11.0 | 0.00 | 0.00 | 0.00 | 18 | 1022.6 |
| 20260507174345 | 81 | 300 | 2.0 | 9.0 | 0.00 | 0.00 | 0.00 | 18 | 1022.7 |
| 20260507173359 | 80 | 38 | 2.0 | 10.0 | 0.00 | 0.00 | 0.00 | 19 | 1022.8 |
| 20260507172323 | 79 | 330 | 2.0 | 7.0 | 0.00 | 0.00 | 0.00 | 19 | 1023.1 |
| 20260507171327 | 79 | 284 | 2.0 | 6.0 | 0.00 | 0.00 | 0.00 | 19 | 1023.1 |
| 20260507170332 | 79 | 334 | 6.0 | 9.0 | 0.00 | 0.00 | 0.00 | 19 | 1023.2 |
| 20260507165338 | 78 | 205 | 1.0 | 6.0 | 0.00 | 0.00 | 0.00 | 19 | 1023.3 |
| 20260507164325 | 77 | 320 | 1.0 | 5.0 | 0.00 | 0.00 | 0.00 | 20 | 1023.3 |
| 20260507163339 | 77 | 94 | 2.0 | 5.0 | 0.00 | 0.00 | 0.00 | 20 | 1023.4 |
| 20260507162329 | 76 | 248 | 0.0 | 8.0 | 0.00 | 0.00 | 0.00 | 20 | 1023.5 |
| 20260507161334 | 75 | 284 | 2.0 | 4.0 | 0.00 | 0.00 | 0.00 | 22 | 1023.6 |
| 20260507160341 | 74 | 318 | 1.0 | 4.0 | 0.00 | 0.00 | 0.00 | 23 | 1023.6 |
| 20260507155324 | 73 | 343 | 1.0 | 5.0 | 0.00 | 0.00 | 0.00 | 23 | 1023.8 |
| 20260507154331 | 73 | 344 | 2.0 | 5.0 | 0.00 | 0.00 | 0.00 | 24 | 1023.8 |
| 20260507153322 | 73 | 333 | 2.0 | 4.0 | 0.00 | 0.00 | 0.00 | 24 | 1023.8 |
| 20260507152357 | 72 | 23 | 2.0 | 5.0 | 0.00 | 0.00 | 0.00 | 24 | 1023.8 |
| 20260507151338 | 71 | 331 | 1.0 | 4.0 | 0.00 | 0.00 | 0.00 | 24 | 1023.9 |
| 20260507150344 | 70 | 235 | 1.0 | 5.0 | 0.00 | 0.00 | 0.00 | 25 | 1023.9 |
| 20260507145321 | 70 | 213 | 3.0 | 4.0 | 0.00 | 0.00 | 0.00 | 26 | 1023.9 |
| 20260507144325 | 71 | 127 | 0.0 | 3.0 | 0.00 | 0.00 | 0.00 | 24 | 1023.9 |
| 20260507143340 | 70 | 127 | 0.0 | 2.0 | 0.00 | 0.00 | 0.00 | 23 | 1023.9 |
| 20260507142327 | 69 | 127 | 0.0 | 2.0 | 0.00 | 0.00 | 0.00 | 24 | 1024.0 |
| 20260507141335 | 68 | 127 | 0.0 | 2.0 | 0.00 | 0.00 | 0.00 | 26 | 1024.0 |
| 20260507140324 | 66 | 127 | 0.0 | 0.0 | 0.00 | 0.00 | 0.00 | 28 | 1024.1 |
| 20260507135332 | 64 | 127 | 0.0 | 1.0 | 0.00 | 0.00 | 0.00 | 28 | 1024.1 |
| 20260507134401 | 63 | 127 | 0.0 | 2.0 | 0.00 | 0.00 | 0.00 | 30 | 1023.9 |
| 20260507133333 | 62 | 127 | 2.0 | 4.0 | 0.00 | 0.00 | 0.00 | 30 | 1023.8 |
| 20260507132320 | 62 | 127 | 1.0 | 3.0 | 0.00 | 0.00 | 0.00 | 33 | 1023.8 |
| 20260507131328 | 62 | 127 | 2.0 | 3.0 | 0.00 | 0.00 | 0.00 | 31 | 1023.8 |
| 20260507130337 | 60 | 127 | 0.0 | 3.0 | 0.00 | 0.00 | 0.00 | 32 | 1023.7 |
| 20260507125322 | 59 | 130 | 3.0 | 5.0 | 0.00 | 0.00 | 0.00 | 34 | 1023.6 |
| 20260507124330 | 60 | 106 | 3.0 | 4.0 | 0.00 | 0.00 | 0.00 | 32 | 1023.6 |
| 20260507123324 | 60 | 106 | 3.0 | 4.0 | 0.00 | 0.00 | 0.00 | 32 | 1023.6 |
| 20260507122331 | 60 | 109 | 4.0 | 6.0 | 0.00 | 0.00 | 0.00 | 32 | 1023.6 |
| 20260507121321 | 60 | 109 | 4.0 | 6.0 | 0.00 | 0.00 | 0.00 | 33 | 1023.5 |
| 20260507120354 | 59 | 109 | 4.0 | 6.0 | 0.00 | 0.00 | 0.00 | 34 | 1023.5 |
| 20260507115324 | 60 | 109 | 3.0 | 6.0 | 0.00 | 0.00 | 0.00 | 34 | 1023.5 |
| 20260507114333 | 61 | 78 | 1.0 | 5.0 | 0.00 | 0.00 | 0.00 | 31 | 1023.5 |
| 20260507113331 | 62 | 96 | 3.0 | 6.0 | 0.00 | 0.00 | 0.00 | 29 | 1023.4 |
| 20260507112328 | 62 | 150 | 4.0 | 7.0 | 0.00 | 0.00 | 0.00 | 29 | 1023.4 |
| 20260507111357 | 61 | 196 | 4.0 | 5.0 | 0.00 | 0.00 | 0.00 | 30 | 1023.3 |
| 20260507110328 | 61 | 171 | 4.0 | 9.0 | 0.00 | 0.00 | 0.00 | 30 | 1023.2 |
| 20260507105335 | 62 | 201 | 6.0 | 9.0 | 0.00 | 0.00 | 0.00 | 30 | 1023.2 |
| 20260507104343 | 62 | 193 | 5.0 | 8.0 | 0.00 | 0.00 | 0.00 | 29 | 1023.3 |
| 20260507103336 | 61 | 196 | 7.0 | 9.0 | 0.00 | 0.00 | 0.00 | 31 | 1023.2 |
| 20260507102325 | 62 | 173 | 4.0 | 7.0 | 0.00 | 0.00 | 0.00 | 30 | 1023.3 |
| 20260507101334 | 60 | 155 | 4.0 | 7.0 | 0.00 | 0.00 | 0.00 | 32 | 1023.4 |
| 20260507100325 | 61 | 125 | 4.0 | 6.0 | 0.00 | 0.00 | 0.00 | 30 | 1023.4 |
| 20260507095334 | 61 | 96 | 3.0 | 4.0 | 0.00 | 0.00 | 0.00 | 31 | 1023.4 |
| 20260507094343 | 61 | 198 | 3.0 | 4.0 | 0.00 | 0.00 | 0.00 | 30 | 1023.5 |
| 20260507093336 | 62 | 232 | 0.0 | 2.0 | 0.00 | 0.00 | 0.00 | 28 | 1023.5 |
| 20260507092323 | 62 | 232 | 2.0 | 4.0 | 0.00 | 0.00 | 0.00 | 28 | 1023.5 |
| 20260507091351 | 62 | 232 | 3.0 | 4.0 | 0.00 | 0.00 | 0.00 | 29 | 1023.6 |
| 20260507090320 | 63 | 192 | 1.0 | 3.0 | 0.00 | 0.00 | 0.00 | 28 | 1023.7 |
| 20260507085328 | 64 | 192 | 3.0 | 5.0 | 0.00 | 0.00 | 0.00 | 26 | 1023.7 |
| 20260507084321 | 64 | 203 | 4.0 | 9.0 | 0.00 | 0.00 | 0.00 | 26 | 1023.9 |
| 20260507083334 | 63 | 202 | 6.0 | 8.0 | 0.00 | 0.00 | 0.00 | 27 | 1023.9 |
| 20260507082324 | 63 | 213 | 4.0 | 9.0 | 0.00 | 0.00 | 0.00 | 28 | 1024.1 |
| 20260507081334 | 63 | 229 | 5.0 | 12.0 | 0.00 | 0.00 | 0.00 | 28 | 1024.0 |
| 20260507080327 | 63 | 223 | 7.0 | 11.0 | 0.00 | 0.00 | 0.00 | 28 | 1023.9 |
| 20260507075343 | 64 | 196 | 5.0 | 9.0 | 0.00 | 0.00 | 0.00 | 27 | 1024.0 |
| 20260507074330 | 64 | 202 | 6.0 | 10.0 | 0.00 | 0.00 | 0.00 | 26 | 1023.9 |
| 20260507073325 | 65 | 233 | 2.0 | 4.0 | 0.00 | 0.00 | 0.00 | 26 | 1023.9 |
| 20260507072333 | 65 | 233 | 2.0 | 5.0 | 0.00 | 0.00 | 0.00 | 26 | 1023.9 |
| 20260507071337 | 65 | 247 | 2.0 | 4.0 | 0.00 | 0.00 | 0.00 | 25 | 1023.9 |
| 20260507070343 | 65 | 211 | 1.0 | 7.0 | 0.00 | 0.00 | 0.00 | 26 | 1023.8 |
| 20260507065325 | 66 | 209 | 6.0 | 7.0 | 0.00 | 0.00 | 0.00 | 25 | 1023.8 |
| 20260507064336 | 65 | 234 | 1.0 | 3.0 | 0.00 | 0.00 | 0.00 | 26 | 1023.8 |
| 20260507063355 | 65 | 234 | 2.0 | 6.0 | 0.00 | 0.00 | 0.00 | 26 | 1023.8 |
| 20260507062338 | 66 | 207 | 1.0 | 6.0 | 0.00 | 0.00 | 0.00 | 25 | 1023.7 |
| 20260507061325 | 65 | 213 | 4.0 | 8.0 | 0.00 | 0.00 | 0.00 | 26 | 1023.7 |
| 20260507060351 | 65 | 214 | 3.0 | 6.0 | 0.00 | 0.00 | 0.00 | 29 | 1023.8 |
| 20260507055334 | 65 | 231 | 3.0 | 5.0 | 0.00 | 0.00 | 0.00 | 28 | 1023.8 |
| 20260507054337 | 67 | 207 | 5.0 | 7.0 | 0.00 | 0.00 | 0.00 | 26 | 1023.7 |
| 20260507053325 | 69 | 99 | 4.0 | 7.0 | 0.00 | 0.00 | 0.00 | 22 | 1023.6 |
| 20260507052337 | 68 | 63 | 4.0 | 6.0 | 0.00 | 0.00 | 0.00 | 23 | 1023.6 |
| 20260507051325 | 66 | 313 | 1.0 | 3.0 | 0.00 | 0.00 | 0.00 | 24 | 1023.6 |
| 20260507050335 | 66 | 18 | 2.0 | 4.0 | 0.00 | 0.00 | 0.00 | 24 | 1023.5 |
| 20260507045324 | 67 | 328 | 3.0 | 3.0 | 0.00 | 0.00 | 0.00 | 23 | 1023.4 |
| 20260507044333 | 67 | 328 | 2.0 | 3.0 | 0.00 | 0.00 | 0.00 | 23 | 1023.5 |
| 20260507043326 | 68 | 328 | 1.0 | 4.0 | 0.00 | 0.00 | 0.00 | 22 | 1023.4 |
| 20260507042335 | 68 | 328 | 4.0 | 5.0 | 0.00 | 0.00 | 0.00 | 22 | 1023.4 |
| 20260507041328 | 69 | 328 | 3.0 | 5.0 | 0.00 | 0.00 | 0.00 | 21 | 1023.4 |
| 20260507040322 | 69 | 319 | 2.0 | 4.0 | 0.00 | 0.00 | 0.00 | 21 | 1023.4 |
| 20260507035335 | 69 | 69 | 2.0 | 4.0 | 0.00 | 0.00 | 0.00 | 21 | 1023.3 |
| 20260507034327 | 69 | 69 | 1.0 | 6.0 | 0.00 | 0.00 | 0.00 | 22 | 1023.2 |
| 20260507033322 | 69 | 101 | 2.0 | 6.0 | 0.00 | 0.00 | 0.00 | 21 | 1023.1 |
| 20260507032333 | 69 | 93 | 2.0 | 6.0 | 0.00 | 0.00 | 0.00 | 22 | 1023.0 |
| 20260507031327 | 69 | 309 | 1.0 | 3.0 | 0.00 | 0.00 | 0.00 | 22 | 1022.9 |
| 20260507030322 | 70 | 304 | 3.0 | 6.0 | 0.00 | 0.00 | 0.00 | 22 | 1022.7 |
| 20260507025332 | 70 | 309 | 3.0 | 5.0 | 0.00 | 0.00 | 0.00 | 22 | 1022.6 |
| 20260507024325 | 71 | 311 | 4.0 | 8.0 | 0.00 | 0.00 | 0.00 | 22 | 1022.6 |
| 20260507023322 | 71 | 310 | 4.0 | 9.0 | 0.00 | 0.00 | 0.00 | 22 | 1022.4 |
| 20260507022333 | 72 | 304 | 5.0 | 8.0 | 0.00 | 0.00 | 0.00 | 21 | 1022.4 |
| 20260507021330 | 72 | 307 | 4.0 | 8.0 | 0.00 | 0.00 | 0.00 | 22 | 1022.2 |
| 20260507020323 | 73 | 290 | 5.0 | 8.0 | 0.00 | 0.00 | 0.00 | 21 | 1022.3 |
| 20260507015332 | 74 | 313 | 6.0 | 9.0 | 0.00 | 0.00 | 0.00 | 21 | 1022.3 |
| 20260507014336 | 75 | 305 | 3.0 | 9.0 | 0.00 | 0.00 | 0.00 | 20 | 1022.3 |
| 20260507013325 | 75 | 355 | 6.0 | 10.0 | 0.00 | 0.00 | 0.00 | 20 | 1022.2 |
| 20260507012330 | 76 | 317 | 5.0 | 12.0 | 0.00 | 0.00 | 0.00 | 20 | 1022.3 |
| 20260507011338 | 76 | 5 | 7.0 | 12.0 | 0.00 | 0.00 | 0.00 | 19 | 1022.2 |
| 20260507010328 | 76 | 313 | 6.0 | 12.0 | 0.00 | 0.00 | 0.00 | 19 | 1022.3 |